TDRS 5

Last updated on Wed Dec 17 2025 00:02:43 GMT+0000 (Coordinated Universal Time)

1 21639U 91054B 25350.23792590 .00000095 00000+0 00000+0 0 9994 2 21639 14.0936 355.1281 0013642 256.5801 111.4479 1.00269619125889
UTC large
Height (km)
Speed (km/s)
/
Latitude / Longitude
Inclination (degrees)
Orbital Period (minutes)
Azimuth
Elevation
Range (km)
Doppler Factor

Next 0 passes for location: London (51.5072 / 0.1276)

Sorry there are no passes over London.